Home > Weather > Drammen > Past weeks

Flag for Norway Weather for the Past 2 Weeks in Drammen, Norway

Now
37 °F

Sprinkles. Partly sunny.


Feels Like: 26 °F
Forecast: 10 / 23 °F
Wind: 23 mph from Northeast

Location: Statfjord B

Current Time: Feb 13, 2016 at 12:33:35 PM

Latest Report: Feb 13, 2016 at 11:50 AM


Visibility: N/A

Pressure: 29.47 "Hg

Humidity: 81%

Dew point: 32 °F

Location of DrammenLocation

Historic Weather in Drammen — Graph

°F

Drammen Temperature Yesterday

Maximum temperature yesterday: 39 °F (at 12:20 AM)
Minimum temperature yesterday: 34 °F (at 8:50 PM)
Average temperature yesterday: 39 °F

High & Low Weather Summary for the Past Weeks

 TemperatureHumidityPressure
High48 °F (Jan 29, 11:50 AM)100% (Feb 1, 11:20 AM)29.98 "Hg (Feb 1, 11:20 AM)
Low34 °F (Jan 31, 7:50 AM)45% (Feb 4, 11:50 AM)28.26 "Hg (Jan 29, 3:50 PM)
Average41 °F76%29.16 "Hg
* Reported Jan 29 11:20 AM — Feb 13 11:20 AM, Drammen, Weather by CustomWeather, © 2016

Note: Actual official high and low records may vary slightly from our data, if they occured in-between our weather recording intervals... More about our weather records

Advertising

Drammen Weather History for the Previous 24 Hours

 ConditionsComfort  
Time TempWeatherWind HumidityBarometerVisibility
11:20 AM
Sat, Feb 13
37 °FBroken clouds.25 mph75%29.47 "HgN/A
10:50 AM39 °FPartly sunny.17 mph65%29.47 "HgN/A
10:20 AM36 °FScattered clouds.18 mph81%29.47 "HgN/A
9:50 AM34 °FSprinkles. Partly sunny.22 mph93%29.50 "Hg3 mi
9:20 AM37 °FSprinkles. Broken clouds.20 mph70%29.47 "HgN/A
8:50 AM36 °FScattered clouds.22 mph75%29.47 "HgN/A
8:20 AM34 °FScattered clouds.17 mph81%29.50 "HgN/A
7:50 AM36 °FPassing clouds.28 mph81%29.50 "HgN/A
7:20 AM37 °FPassing clouds.23 mph60%29.50 "HgN/A
6:50 AM37 °FPassing clouds.25 mph60%29.50 "HgN/A
6:20 AM37 °FPassing clouds.26 mph56%29.50 "HgN/A
5:50 AM37 °FPassing clouds.24 mph65%29.53 "HgN/A
5:20 AM36 °FPassing clouds.23 mph75%29.53 "HgN/A
4:50 AM36 °FSprinkles. Passing clouds.30 mph81%29.53 "HgN/A
4:20 AM36 °FSnow flurries. Partly cloudy.25 mph75%29.53 "HgN/A
3:50 AM37 °FPassing clouds.23 mph60%29.56 "HgN/A
3:20 AM36 °FPassing clouds.20 mph75%29.56 "HgN/A
2:50 AM34 °FSprinkles. Partly cloudy.15 mph87%29.59 "HgN/A
2:20 AM37 °FPassing clouds.20 mph81%29.59 "HgN/A
1:50 AM37 °FChilly.20 mph75%29.59 "HgN/A
1:20 AM37 °FSprinkles. Partly cloudy.29 mph81%29.59 "HgN/A
12:50 AM37 °FPassing clouds.20 mph81%29.62 "HgN/A
12:20 AM36 °FPassing clouds.22 mph75%29.62 "HgN/A
11:50 PM
Fri, Feb 12
37 °FPassing clouds.25 mph70%29.62 "HgN/A
10:50 PM37 °FPartly cloudy.26 mph65%29.65 "HgN/A
10:20 PM37 °FPassing clouds.22 mph75%29.65 "HgN/A
9:50 PM37 °FPassing clouds.29 mph81%29.65 "HgN/A
9:20 PM37 °FPassing clouds.24 mph70%29.65 "HgN/A
8:50 PM34 °FLight rain. Partly cloudy.17 mph93%29.68 "HgN/A
8:20 PM39 °FPassing clouds.24 mph56%29.65 "HgN/A
7:50 PM39 °FPassing clouds.22 mph65%29.68 "HgN/A
7:20 PM37 °FPassing clouds.18 mph70%29.68 "HgN/A
6:50 PM37 °FPassing clouds.21 mph70%29.71 "HgN/A
6:20 PM36 °FSprinkles. Passing clouds.29 mph87%29.71 "HgN/A
5:50 PM39 °FPassing clouds.26 mph61%29.71 "HgN/A
5:20 PM37 °FPassing clouds.22 mph75%29.71 "HgN/A
4:50 PM37 °FPartly sunny.25 mph81%29.71 "HgN/A
4:20 PM39 °FPartly sunny.24 mph56%29.71 "HgN/A
3:50 PM39 °FScattered clouds.16 mph65%29.74 "HgN/A
3:20 PM39 °FPartly sunny.18 mph70%29.74 "HgN/A
2:50 PM37 °FScattered clouds.14 mph70%29.74 "HgN/A
2:20 PM39 °FPartly sunny.20 mph70%29.74 "HgN/A
1:50 PM39 °FPassing clouds.16 mph65%29.74 "HgN/A
1:20 PM39 °FPartly sunny.16 mph70%29.77 "HgN/A
12:50 PM37 °FScattered clouds.22 mph75%29.74 "HgN/A
12:20 PM39 °FScattered clouds.21 mph61%29.77 "HgN/A
Weather by CustomWeather, © 2016

See weather overviewHow to use our weather pages